Home > Weather > Bergheim > Past weeks

Flag for Germany Past Weather in Bergheim, North Rhine-Westphalia, Germany — Yesterday and Last 2 Weeks

Now
70 °F

Scattered clouds.


Feels Like: 70 °F
Forecast: 63 / 73 °F
Wind: 9 mph from West

Location: Noervenich

Current Time: Jul 27, 2016 at 11:56:22 AM

Latest Report: Jul 27, 2016 at 11:20 AM


Visibility: N/A

Pressure: 30.07 "Hg

Humidity: 60%

Dew Point: 55 °F

Location of BergheimLocation

Past Weather in Bergheim — Graph

°F

Bergheim Temperature Yesterday

Maximum temperature yesterday: 72 °F (at 11:20 AM)
Minimum temperature yesterday: 63 °F (at 4:20 AM)
Average temperature yesterday: 67 °F

High & Low Weather Summary for the Past Weeks

 TemperatureHumidityPressure
High95 °F (Jul 20, 3:20 PM)100% (Jul 24, 3:20 AM)30.33 "Hg (Jul 24, 3:20 AM)
Low50 °F (Jul 14, 3:20 AM)26% (Jul 20, 3:20 PM)29.86 "Hg (Jul 20, 4:20 PM)
Average69 °F71%30.09 "Hg
* Reported Jul 12 10:20 AM — Jul 27 10:20 AM, Bergheim, Weather by CustomWeather, © 2016

Note: Actual official high and low records may vary slightly from our data, if they occured in-between our weather recording intervals... More about our weather records

Advertising

Bergheim Weather History for the Previous 24 Hours

Scroll right to see more
 ConditionsComfort  
Time TempWeatherWind HumidityBarometerVisibility
10:20 AM
Wed, Jul 27
66 °FScattered clouds.7 mph68%30.07 "HgN/A
9:20 AM64 °FPartly sunny.13 mph78%30.07 "HgN/A
8:20 AM63 °FPartly sunny.8 mph83%30.07 "HgN/A
7:20 AM61 °FPartly sunny.3 mph88%30.07 "HgN/A
6:20 AM59 °FPassing clouds.2 mph94%30.07 "HgN/A
5:20 AM57 °FPartly cloudy.5 mph94%30.07 "HgN/A
4:20 AM57 °FPassing clouds.1 mph94%30.07 "HgN/A
3:20 AM57 °FPassing clouds.2 mph94%30.09 "HgN/A
2:20 AM59 °FPassing clouds.5 mph94%30.09 "HgN/A
1:20 AM61 °FPassing clouds.3 mph88%30.09 "HgN/A
12:20 AM61 °FPassing clouds.2 mph94%30.12 "HgN/A
11:20 PM
Tue, Jul 26
63 °FPartly cloudy.3 mph88%30.12 "HgN/A
10:20 PM63 °FPartly sunny.3 mph88%30.12 "HgN/A
9:20 PM66 °FPartly sunny.2 mph78%30.12 "HgN/A
8:20 PM68 °FPartly sunny.3 mph73%30.12 "HgN/A
7:20 PM70 °FBroken clouds.2 mph64%30.12 "HgN/A
6:20 PM70 °FBroken clouds.2 mph64%30.12 "HgN/A
5:20 PM68 °FPartly sunny.2 mph73%30.15 "HgN/A
4:20 PM66 °FPartly sunny.2 mph78%30.15 "HgN/A
3:20 PM68 °FLight rain. Partly sunny.10 mph69%30.15 "HgN/A
2:20 PM70 °FLight rain. Broken clouds.9 mph64%30.15 "HgN/A
1:20 PM70 °FPartly sunny.6 mph60%30.15 "HgN/A
11:20 AM72 °FBroken clouds.2 mph61%30.15 "HgN/A
Weather by CustomWeather, © 2016

See weather overviewHow to use our weather pages